Location: *
(46.1866°S, 178.5290°W)
Time: 10:09:34
(UTC+00:00)

CZ-2C R/B - Pass Details

Date: 19 May 2021
Orbit: 785 x 869 km, 98.2° (Epoch: 14 June)

Event Time Altitude Azimuth Distance (km) Brightness Sun altitude
Rises 06:06:58 0° 4° (N) 3,451 6.0 -16.9°
Reaches altitude 10° 06:09:23 10° 0° (N) 2,518 5.3 -17.3°
Maximum altitude 06:14:56 59° 280° (W) 1,003 3.4 -18.3°
Drops below altitude 10° 06:20:28 10° 201° (SSW) 2,515 5.3 -19.2°
Sets 06:22:54 0° 196° (SSW) 3,447 6.0 -19.6°
